Location: Mount Cross
(36.6390°N, 79.4878°W)
Time: 15:15:52
(UTC+00:00)

Explorer 7 - All Passes

Search period start: 30 March 2023 00:00
Search period end: 09 April 2023 00:00
Orbit: 478 x 657 km, 50.3° (Epoch: 30 March)

Date Brightness Start Highest point End Pass type
(mag) Time Alt. Az. Time Alt. Az. Time Alt. Az.
30 Mar - 01:36:21 10° NW 01:40:00 29° NNE 01:43:29 10° E visible
30 Mar - 03:16:29 10° WNW 03:20:19 44° SW 03:23:58 10° SSE visible
30 Mar - 18:51:20 10° SSW 18:55:50 44° SE 19:00:12 10° ENE daylight
30 Mar - 20:31:53 10° W 20:36:10 35° NNW 20:40:18 10° NE daylight
30 Mar - 22:14:52 10° NW 22:17:26 15° N 22:19:56 10° NNE daylight
30 Mar - 23:56:35 10° NNW 23:59:07 15° N 00:01:33 10° NE visible
31 Mar - 01:36:19 10° NW 01:40:16 40° NNE 01:44:00 10° ESE visible
31 Mar - 03:16:53 10° WNW 03:20:18 27° SW 03:23:35 10° S visible
31 Mar - 18:51:09 10° SW 18:55:52 68° SE 19:00:26 10° NE daylight
31 Mar - 20:32:26 10° W 20:36:26 27° NNW 20:40:17 10° NNE daylight
31 Mar - 22:15:32 10° NW 22:17:51 14° N 22:20:08 10° NNE daylight
31 Mar - 23:56:35 10° NNW 23:59:30 17° NNE 00:02:19 10° ENE daylight
01 Apr - 01:36:19 10° NW 01:40:27 59° NE 01:44:21 10° ESE visible
01 Apr - 03:17:36 10° W 03:20:14 17° SW 03:22:47 10° S visible
01 Apr - 17:13:12 10° SSE 17:16:06 16° SE 17:18:58 10° E daylight
01 Apr - 18:51:10 10° SW 18:55:56 82° NW 19:00:33 10° NE daylight
01 Apr - 20:33:05 10° WNW 20:36:43 22° NNW 20:40:14 10° NNE daylight
01 Apr - 22:16:03 10° NNW 22:18:17 13° N 22:20:28 10° NNE daylight
01 Apr - 23:56:32 10° NNW 23:59:51 21° NNE 00:03:02 10° ENE daylight
02 Apr - 01:36:22 10° NW 01:40:34 89° SSW 01:44:29 10° SE visible
02 Apr - 03:19:42 10° WSW 03:20:04 10° SW 03:20:28 10° SW visible
02 Apr - 17:12:07 10° S 17:15:59 25° SE 17:19:47 10° ENE daylight
02 Apr - 18:51:21 10° WSW 18:56:02 57° NW 19:00:34 10° NE daylight
02 Apr - 20:33:47 10° WNW 20:37:02 18° NNW 20:40:13 10° NNE daylight
02 Apr - 22:16:21 10° NNW 22:18:41 14° N 22:20:59 10° NE daylight
02 Apr - 23:56:26 10° NW 00:00:08 27° NNE 00:03:39 10° E daylight
03 Apr - 01:36:29 10° WNW 01:40:35 56° SW 01:44:26 10° SE visible
03 Apr - 17:11:31 10° SSW 17:15:54 37° SE 17:20:14 10° ENE daylight
03 Apr - 18:51:41 10° WSW 18:56:10 41° NNW 19:00:32 10° NE daylight
03 Apr - 20:34:28 10° NW 20:37:23 16° NNW 20:40:13 10° NNE daylight
03 Apr - 22:16:28 10° NNW 22:19:05 15° N 22:21:37 10° NE daylight
03 Apr - 23:56:21 10° NW 00:00:21 36° NNE 00:04:08 10° E daylight
04 Apr - 01:36:43 10° WNW 01:40:32 34° SW 01:44:08 10° SSE visible
04 Apr - 17:11:11 10° SW 17:15:51 57° SE 17:20:28 10° ENE daylight
04 Apr - 18:52:07 10° W 18:56:20 31° NNW 19:00:27 10° NE daylight
04 Apr - 20:35:06 10° NW 20:37:44 15° N 20:40:18 10° NNE daylight
04 Apr - 22:16:28 10° NNW 22:19:26 17° NNE 22:22:17 10° NE daylight
04 Apr - 23:56:15 10° NW 00:00:30 51° NNE 00:04:28 10° ESE daylight
05 Apr - 01:37:11 10° WNW 01:40:24 22° SW 01:43:28 10° S visible
05 Apr - 15:33:52 10° SSE 15:36:06 13° SE 15:38:20 10° E daylight
05 Apr - 17:11:02 10° SW 17:15:50 85° SE 17:20:32 10° NE daylight
05 Apr - 18:52:38 10° WNW 18:56:32 25° NNW 19:00:21 10° NNE daylight
05 Apr - 20:35:35 10° NW 20:38:05 14° N 20:40:31 10° NNE daylight
05 Apr - 22:16:22 10° NNW 22:19:43 20° NNE 22:22:56 10° ENE daylight
05 Apr - 23:56:12 10° NW 00:00:33 76° NE 00:04:37 10° SE daylight
06 Apr - 01:38:07 10° W 01:40:12 14° SW 01:42:14 10° SSW visible
06 Apr - 15:32:23 10° S 15:35:54 21° SE 15:39:25 10° E daylight
06 Apr - 17:11:04 10° WSW 17:15:50 67° NW 17:20:31 10° NE daylight
06 Apr - 18:53:13 10° WNW 18:56:46 20° NNW 19:00:15 10° NNE daylight
06 Apr - 20:35:55 10° NNW 20:38:25 14° N 20:40:53 10° NE daylight
06 Apr - 22:16:14 10° NNW 22:19:57 25° NNE 22:23:30 10° E daylight
06 Apr - 23:56:14 10° NW 00:00:33 70° SW 00:04:35 10° SE daylight
07 Apr - 15:31:32 10° SSW 15:35:43 31° SE 15:39:54 10° ENE daylight
07 Apr - 17:11:16 10° WSW 17:15:53 48° NNW 17:20:26 10° NE daylight
07 Apr - 18:53:50 10° WNW 18:57:02 18° NNW 19:00:10 10° NNE daylight
07 Apr - 20:36:02 10° NNW 20:38:44 15° N 20:41:22 10° NE daylight
07 Apr - 22:16:05 10° NW 22:20:08 32° NNE 22:23:57 10° E daylight
07 Apr - 23:56:19 10° WNW 00:00:27 44° SW 00:04:20 10° SSE daylight
08 Apr - 15:31:01 10° SSW 15:35:34 47° SE 15:40:08 10° ENE daylight
08 Apr - 17:11:34 10° W 17:15:57 35° NNW 17:20:18 10° NE daylight
08 Apr - 18:54:24 10° NW 18:57:18 16° N 19:00:09 10° NNE daylight
08 Apr - 20:36:02 10° NNW 20:39:02 17° NNE 20:41:57 10° NE daylight
08 Apr - 22:15:55 10° NW 22:20:13 44° NNE 22:24:17 10° ESE daylight
